PEGASUS DEB, 24980

Orbit data source: Space-Track

PEGASUS DEB, 24980 is space debris in LEO originally from a launch on Thu, 19 May 1994 UTC launched from the Air Force Western Test Range (AFWTR). Debris objects in space refer to the collection of defunct objects orbiting the Earth. Examples of debris include non-operational satellites, rocket bodies, and fragments generated from explosions, collisions, or faulty payload assembly.

Loading next visibility...
Identifier
24980, 1994-029ACN
Orbit
LEO
Country
Flag of USUS
Related business
Manufacturer
Unknown
Mission
Spacecraft
Bus & Motor
Unknown
Mass
Unknown
Launch date (UTC)
1994-05-19 (32 years ago)
Launch vehicle
Unknown
Launch site
Air Force Western Test Range (AFWTR)
Object type
Payload
Rocket body
Debris
Shape & HBR
Unknown shape, 0.1 m
Radar Cross Section
Small (<0.1 m²)

Expand to show TLE details & history
Last TLE update: 23 hours ago

TLE from 23 hours ago
0 PEGASUS DEB
1 24980U 94029ACN 26106.83697357  .00019166  00000-0  15762-2 0  9996
2 24980  81.5723 245.9395 0147286 184.1866 175.8132 14.90850582538982
Epoch: 2026-04-16T20:05Z
TLE epoch observation values (Epoch: 2026-04-16T20:05:14.516Z)
Latitude
-0.00009°
Longitude
99.65021°
Altitude
700.767 km
Speed
7.45 km/s
True Right ascension
16h 23m 45s
True Declination
0° 00' 00"
Sunlit
Object was in full shadow at epoch
Visualization orbit readout
Latitude
Unknown
Longitude
Unknown
Altitude
Unknown
Speed
Unknown
Apparent Right ascension
Unknown
Apparent Declination
Unknown
Sunlit
N/A
Visualization observer readout
Local Sidereal Time
01:39:33
Azimuth
Unknown
Elevation
Unknown
Doppler factor
Unknown
Orbital elements
Apogee altitude
694.997 km
Perigee altitude
489.667 km
Semi-major axis
6,970.469 km
Eccentricity
0.01473
Inclination
81.5723°
RAAN
245.9395°
Arg. of periapsis
184.1866°
True anomaly
175.9342°
Mean anomaly
175.8132°
Eccentric anomaly
175.87392°
Mean motion
3.7295 °/min
Orbital period
96.53 mins
BSTAR
0.0015762
Loading maneuver chart data...
Computing Atmospheric mass density...

Documentation

Showing up to 5 results
|